Overview Statistics Trail Chart Weather Telemetry Raw packets
 

This is the latest recevied weather packets stored in our database for station/object EA1GHG-11. If no packets are shown the sender has not sent any weather packets the latest 10 day(s).

<< 1 2 3 4 5 6 >>
Time Temp. Humidity Pressure Rain* Wind** Luminosity Snow
1788543672 30° C 100% 1024.3 hPa - - - -
1788542170 30° C 95% 1024.4 hPa - - - -
1788540670 30.56° C 100% 1024.3 hPa - - - -
1788539170 31.67° C 80% 1024 hPa - - - -
1788537670 31.67° C 47% 1023.3 hPa - - - -
1788536170 32.22° C 41% 1023.6 hPa - - - -
1788534669 31.67° C 40% 1023.8 hPa - - - -
1788533169 32.22° C 40% 1024.3 hPa - - - -
1788531669 32.78° C 44% 1024.6 hPa - - - -
1788530169 32.78° C 43% 1025.1 hPa - - - -
1788528879 32.78° C 44% 1025.4 hPa - - - -
1788527379 31.67° C 46% 1025.5 hPa - - - -
1788525879 31.67° C 54% 1025.7 hPa - - - -
1788524379 30.56° C 100% 1025.9 hPa - - - -
1788522879 30.56° C 100% 1025.8 hPa - - - -
1788521379 29.44° C 100% 1025.5 hPa - - - -
1788519879 27.78° C 100% 1025.6 hPa - - - -
1788518412 27.22° C 100% 1025.5 hPa - - - -
1788518379 27.22° C 100% 1025.5 hPa - - - -
1788516879 26.11° C 100% 1025.3 hPa - - - -
1788515378 25° C 100% 1025.6 hPa - - - -
1788513878 23.33° C 100% 1025.1 hPa - - - -
1788512378 22.78° C 100% 1025.2 hPa - - - -
1788510878 21.11° C 100% 1025.3 hPa - - - -
1788510279 21.11° C 100% 1025.3 hPa - - - -

* Rain since midnight (hover to see other rain measurements)
** Current wind speed in m/s (hover to see current wind gust speed)